Cocoa Beach, FL

8:36 AM EDT on March 28, 2017 (GMT -0400)
Patrick Air Force Base

Weather History for KCOF - January, 2014

Change the Weather History Date:

Wednesday, January 1, 2014

  Actual Average Record
Temperature  
Mean Temperature 68 °F -  
Max Temperature 70 °F 67 °F 83 °F (2016)
Min Temperature 65 °F 54 °F 48 °F (1998)
Cooling Degree Days 2    
Growing Degree Days 18 (Base 50)    
Moisture  
Dew Point 67 °F    
Average Humidity 96    
Maximum Humidity 100    
Minimum Humidity 76    
Precipitation  
Precipitation 0.39 in - - ()
Sea Level Pressure  
Sea Level Pressure 30.16 in    
Wind  
Wind Speed 8 mph (NNE)    
Max Wind Speed 15 mph    
Max Gust Speed -    
Visibility 9 miles    
Events Rain    
Averages and records for this station are not official NWS values.
T = Trace of Precipitation, MM = Missing Value Source: NWS Daily Summary

Daily Weather History Graph

Daily Weather History Graph

Search for Another Location

Airport or City:

Trip Planner

Search our weather history database for the weather conditions in past years. The results will help you decide how hot, cold, wet, or windy it might be!

Date:

Astronomy

Jan. 01, 2014 Rise Set
Actual Time 7:14 AM EST 5:37 PM EST
Civil Twilight 6:48 AM EST 6:03 PM EST
Nautical Twilight 6:19 AM EST 6:32 PM EST
Astronomical Twilight 5:50 AM EST 7:01 PM EST
Moon 7:08 AM EST (1/1) 6:14 PM EST (1/1)
Length of Visible Light 11h 14m
Length of Day
10h 23m
New Moon, 0% of the Moon is Illuminated
Jan 1
New Moon
Jan 7
First Quarter
Jan 15
Full
Jan 24
Last Quarter
Jan 30
New

Hourly Weather History & Observations

Time (EST) Temp. Dew Point Humidity Pressure Visibility Wind Dir Wind Speed Gust Speed Precip Events Conditions
12:58 AM 70.2 °F 62.2 °F 76% 30.24 in 10.0 mi East 10.4 mph - N/A   Mostly Cloudy
1:58 AM 70.3 °F 63.3 °F 78% 30.25 in 10.0 mi ENE 8.1 mph - N/A   Overcast
2:58 AM 70.2 °F 63.9 °F 80% 30.24 in 10.0 mi ENE 5.8 mph - N/A   Mostly Cloudy
3:58 AM 70.2 °F 64.9 °F 83% 30.24 in 10.0 mi ENE 6.9 mph - N/A   Overcast
4:58 AM 70.3 °F 64.4 °F 81% 30.22 in 10.0 mi ENE 8.1 mph - N/A   Overcast
5:58 AM 70.5 °F 63.9 °F 79% 30.24 in 10.0 mi NE 6.9 mph - N/A   Overcast
6:48 AM 66.2 °F 64.4 °F 94% 30.22 in 10.0 mi NW 10.4 mph - N/A   Light Drizzle
6:58 AM 66.6 °F 64.0 °F 92% 30.24 in 10.0 mi East 3.5 mph - 0.00 in   Overcast
7:08 AM 66.2 °F 64.4 °F 94% 30.23 in 10.0 mi Variable 1.2 mph - N/A   Overcast
7:13 AM 68.0 °F 64.4 °F 88% 30.23 in 10.0 mi Variable 2.3 mph - N/A   Overcast
7:33 AM 68.0 °F 66.2 °F 94% 30.24 in 10.0 mi Calm Calm - N/A   Light Drizzle
7:48 AM 68.0 °F 66.2 °F 94% 30.24 in 10.0 mi NW 1.2 mph - N/A   Light Drizzle
7:52 AM 68.0 °F 66.2 °F 94% 30.24 in 10.0 mi Variable 2.3 mph - N/A   Overcast
7:58 AM 68.0 °F 66.2 °F 94% 30.25 in 10.0 mi ESE 4.6 mph - 0.00 in   Overcast
8:13 AM 68.0 °F 66.2 °F 94% 30.24 in 10.0 mi East 8.1 mph - N/A   Overcast
8:43 AM 68.0 °F 66.2 °F 94% 30.24 in 10.0 mi East 4.6 mph - N/A   Overcast
8:58 AM 69.1 °F 65.5 °F 88% 30.25 in 10.0 mi East 8.1 mph - N/A   Overcast
9:58 AM 70.5 °F 66.6 °F 87% 30.27 in 10.0 mi ENE 9.2 mph - N/A   Overcast
10:28 AM 69.8 °F 68.0 °F 94% 30.25 in 10.0 mi NE 10.4 mph - N/A   Overcast
10:53 AM 68.0 °F 66.2 °F 94% 30.24 in 10.0 mi East 10.4 mph - N/A   Overcast
10:58 AM 68.2 °F 66.2 °F 93% 30.25 in 10.0 mi ENE 8.1 mph - N/A   Overcast
11:38 AM 68.0 °F 66.2 °F 94% 30.22 in 10.0 mi NE 4.6 mph - N/A   Overcast
11:41 AM 68.0 °F 66.2 °F 94% 30.23 in 9.0 mi NE 5.8 mph - N/A   Light Drizzle
11:58 AM 68.2 °F 67.1 °F 96% 30.24 in 8.0 mi North 6.9 mph - 0.01 in   Light Drizzle
12:18 PM 68.0 °F 68.0 °F 100% 30.21 in 10.0 mi North 3.5 mph - N/A Rain Light Rain
12:28 PM 68.0 °F 66.2 °F 94% 30.20 in 5.0 mi ENE 8.1 mph - N/A Rain Light Rain
12:33 PM 68.0 °F 66.2 °F 94% 30.20 in 5.0 mi ENE 5.8 mph - N/A   Light Drizzle
12:43 PM 68.0 °F 66.2 °F 94% 30.19 in 6.0 mi NE 6.9 mph - N/A   Light Drizzle
12:58 PM 67.3 °F 66.9 °F 99% 30.19 in 4.0 mi NE 8.1 mph - 0.04 in   Drizzle
1:08 PM 66.2 °F 66.2 °F 100% 30.18 in 7.0 mi NE 8.1 mph - N/A   Light Drizzle
1:23 PM 68.0 °F 68.0 °F 100% 30.17 in 7.0 mi NE 8.1 mph - N/A Rain Light Rain
1:53 PM 68.0 °F 68.0 °F 100% 30.16 in 10.0 mi NNE 9.2 mph - N/A   Light Drizzle
1:56 PM 68.0 °F 68.0 °F 100% 30.16 in 10.0 mi NNE 8.1 mph - N/A   Overcast
1:58 PM 67.8 °F 67.5 °F 99% 30.17 in 10.0 mi NNE 8.1 mph - 0.02 in   Overcast
2:17 PM 68.0 °F 68.0 °F 100% 30.15 in 10.0 mi NNE 8.1 mph - N/A   Light Drizzle
2:22 PM 68.0 °F 68.0 °F 100% 30.15 in 10.0 mi North 9.2 mph - N/A   Light Drizzle
2:32 PM 68.0 °F 68.0 °F 100% 30.14 in 10.0 mi NNE 8.1 mph - N/A   Light Drizzle
2:33 PM 68.0 °F 68.0 °F 100% 30.14 in 10.0 mi NNE 8.1 mph - N/A   Overcast
2:58 PM 68.5 °F 68.5 °F 100% 30.16 in 10.0 mi NNE 11.5 mph - 0.00 in   Overcast
3:25 PM 68.0 °F 68.0 °F 100% 30.13 in 10.0 mi North 10.4 mph - N/A   Light Drizzle
3:45 PM 68.0 °F 68.0 °F 100% 30.13 in 10.0 mi North 11.5 mph - N/A   Light Drizzle
3:58 PM 68.2 °F 68.2 °F 100% 30.14 in 8.0 mi North 10.4 mph - 0.03 in Rain Light Rain
4:13 PM 68.0 °F 68.0 °F 100% 30.13 in 3.0 mi North 9.2 mph - N/A Rain Rain
4:23 PM 68.0 °F 68.0 °F 100% 30.12 in 9.0 mi North 10.4 mph - N/A Rain Light Rain
4:53 PM 68.0 °F 68.0 °F 100% 30.12 in 10.0 mi North 9.2 mph - N/A   Light Drizzle
4:58 PM 67.6 °F 67.3 °F 99% 30.14 in 10.0 mi North 9.2 mph - 0.05 in   Light Drizzle
5:03 PM 68.0 °F 68.0 °F 100% 30.12 in 10.0 mi North 10.4 mph - N/A Rain Light Rain
5:18 PM 66.2 °F 66.2 °F 100% 30.13 in 10.0 mi NNW 12.7 mph - N/A Rain Light Rain
5:23 PM 66.2 °F 66.2 °F 100% 30.13 in 7.0 mi North 12.7 mph - N/A Rain Light Rain
5:28 PM 66.2 °F 66.2 °F 100% 30.13 in 5.0 mi NNW 12.7 mph - N/A Rain Heavy Rain
5:33 PM 66.2 °F 66.2 °F 100% 30.12 in 7.0 mi NNW 13.8 mph - N/A Rain Rain
5:38 PM 66.2 °F 66.2 °F 100% 30.12 in 9.0 mi NNW 13.8 mph - N/A Rain Light Rain
5:43 PM 66.2 °F 66.2 °F 100% 30.12 in 9.0 mi NNW 13.8 mph - N/A Rain Heavy Rain
5:48 PM 66.2 °F 66.2 °F 100% 30.12 in 10.0 mi NNW 15.0 mph - N/A Rain Rain
5:58 PM 65.8 °F 65.7 °F 99% 30.14 in 10.0 mi NNW 13.8 mph - 0.16 in Rain Heavy Rain
6:18 PM 66.2 °F 66.2 °F 100% 30.12 in 10.0 mi North 11.5 mph - N/A Rain Rain
6:28 PM 66.2 °F 66.2 °F 100% 30.12 in 10.0 mi North 10.4 mph - N/A Rain Heavy Rain
6:38 PM 66.2 °F 66.2 °F 100% 30.12 in 10.0 mi North 10.4 mph - N/A Rain Light Rain
6:43 PM 66.2 °F 66.2 °F 100% 30.12 in 10.0 mi North 10.4 mph - N/A Rain Light Rain
6:58 PM 66.2 °F 66.2 °F 100% 30.14 in 10.0 mi North 10.4 mph - 0.07 in Rain Light Rain
7:08 PM 66.2 °F 66.2 °F 100% 30.12 in 10.0 mi North 9.2 mph - N/A   Light Drizzle
7:14 PM 66.2 °F 66.2 °F 100% 30.12 in 10.0 mi North 9.2 mph - N/A   Overcast
7:19 PM 66.2 °F 66.2 °F 100% 30.12 in 10.0 mi NNW 8.1 mph - N/A   Overcast
7:24 PM 66.2 °F 66.2 °F 100% 30.12 in 10.0 mi NNW 9.2 mph - N/A   Overcast
7:39 PM 66.2 °F 66.2 °F 100% 30.12 in 10.0 mi North 9.2 mph - N/A   Overcast
7:49 PM 66.2 °F 66.2 °F 100% 30.12 in 10.0 mi NNW 8.1 mph - N/A   Overcast
7:58 PM 66.9 °F 66.6 °F 99% 30.12 in 10.0 mi NNW 10.4 mph - 0.01 in   Overcast
8:43 PM 68.0 °F 66.2 °F 94% 30.11 in 10.0 mi North 8.1 mph - N/A   Mostly Cloudy
8:58 PM 67.1 °F 66.9 °F 99% 30.12 in 10.0 mi NNW 8.1 mph - N/A   Mostly Cloudy
9:03 PM 68.0 °F 68.0 °F 100% 30.11 in 10.0 mi NNW 10.4 mph - N/A   Mostly Cloudy
9:08 PM 68.0 °F 68.0 °F 100% 30.11 in 10.0 mi North 8.1 mph - N/A   Mostly Cloudy
9:48 PM 68.0 °F 68.0 °F 100% 30.10 in 10.0 mi North 6.9 mph - N/A   Mostly Cloudy
9:58 PM 68.0 °F 67.6 °F 99% 30.11 in 10.0 mi North 8.1 mph - N/A   Mostly Cloudy
10:08 PM 68.0 °F 68.0 °F 100% 30.08 in 10.0 mi North 8.1 mph - N/A   Scattered Clouds
10:58 PM 68.0 °F 67.6 °F 99% 30.09 in 10.0 mi NW 3.5 mph - N/A   Scattered Clouds
11:03 PM 68.0 °F 68.0 °F 100% 30.08 in 10.0 mi WSW 5.8 mph - N/A   Mostly Cloudy
11:20 PM 68.0 °F 68.0 °F 100% 30.07 in 10.0 mi North 6.9 mph - N/A   Light Drizzle
11:30 PM 68.0 °F 68.0 °F 100% 30.07 in 10.0 mi NNW 3.5 mph - N/A   Light Drizzle
11:34 PM 68.0 °F 68.0 °F 100% 30.06 in 10.0 mi NNW 3.5 mph - N/A   Scattered Clouds
11:58 PM 67.8 °F 67.6 °F 99% 30.06 in 10.0 mi NNW 3.5 mph - 0.00 in   Mostly Cloudy